Home > Weather > Huambo > Past weeks

Flag for Angola Past Weather in Huambo, Angola — Yesterday and Last 2 Weeks

Now
72 °F

Clear.


Feels Like: 69 °F
Forecast: 37 / 76 °F
Wind: 5 mph from South

Location: Luanda Airport

Current Time: Jun 25, 2016 at 10:33:24 PM

Latest Report: Jun 25, 2016 at 10:00 PM


Visibility: 10 mi

Pressure: 29.95 "Hg (24.54 "Hg at 1720m altitude)

Humidity: 88%

Dew Point: 68 °F

Location of HuamboLocation

Past Weather in Huambo — Graph

°F

Huambo Temperature Yesterday

Maximum temperature yesterday: 79 °F (at 11:00 AM)
Minimum temperature yesterday: 70 °F (at 1:00 AM)
Average temperature yesterday: 73 °F

High & Low Weather Summary for the Past Weeks

 TemperatureHumidityPressure
High84 °F (Jun 19, 3:00 PM)94% (Jun 15, 5:00 AM)30.09 "Hg (Jun 15, 5:00 AM)
Low68 °F (Jun 15, 4:00 AM)51% (Jun 19, 4:00 PM)29.83 "Hg (Jun 24, 4:00 PM)
Average74 °F78%29.98 "Hg
* Reported Jun 10 9:00 PM — Jun 25 9:00 PM, Huambo, Weather by CustomWeather, © 2016

Note: Actual official high and low records may vary slightly from our data, if they occured in-between our weather recording intervals... More about our weather records

Advertising

Huambo Weather History for the Previous 24 Hours

Scroll right to see more
 ConditionsComfort  
Time TempWeatherWind HumidityBarometerVisibility
9:00 PM
Sat, Jun 25
72 °FClear.6 mph88%29.92 "Hg10 mi
8:00 PM72 °FClear.7 mph88%29.92 "Hg10 mi
7:00 PM73 °FClear.8 mph78%29.89 "Hg10 mi
6:00 PM75 °FClear.9 mph74%29.86 "Hg10 mi
5:00 PM75 °FSunny.9 mph74%29.86 "Hg10 mi
4:00 PM77 °FSunny.5 mph69%29.86 "Hg10 mi
3:00 PM77 °FSunny.7 mph69%29.86 "Hg10 mi
2:00 PM77 °FSunny.7 mph69%29.89 "Hg10 mi
1:00 PM77 °FSunny.5 mph69%29.92 "Hg10 mi
12:00 PM77 °FScattered clouds.6 mph69%29.95 "HgN/A
11:00 AM77 °FScattered clouds.7 mph69%29.95 "HgN/A
10:00 AM77 °FScattered clouds.3 mph69%29.98 "HgN/A
9:00 AM75 °FBroken clouds.5 mph74%29.98 "HgN/A
8:00 AM72 °FBroken clouds.3 mph83%29.98 "Hg4 mi
7:00 AM70 °FFog.3 mph88%29.95 "Hg2 mi
6:00 AM70 °FPassing clouds.2 mph88%29.95 "Hg4 mi
5:00 AM70 °FPassing clouds.2 mph94%29.95 "Hg4 mi
4:00 AM70 °FPassing clouds.2 mph94%29.92 "Hg4 mi
3:00 AM70 °FPassing clouds.2 mph94%29.92 "Hg5 mi
2:00 AM68 °FPassing clouds.2 mph94%29.92 "HgN/A
1:00 AM70 °FClear.2 mph88%29.92 "Hg10 mi
12:00 AM70 °FPassing clouds.2 mph88%29.95 "HgN/A
10:00 PM
Fri, Jun 24
72 °FClear.5 mph88%29.95 "Hg10 mi
Weather by CustomWeather, © 2016

See weather overviewHow to use our weather pages